Regional Weather Roundup
Issued by NWS Wilmington, NC

Home | Current Version | Previous Version | Text Only | Print | Product List | Glossary On
Versions: 1 2 3 4 5 6 7 8 9 10 11 12 13 14 15 16 17 18 19 20 21 22 23 24 25 26 27 28 29 30 31 32 33 34 35 36 37 38 39 40 41 42 43 44 45 46 47 48 49 50
000
ASUS42 KILM 091613
RWRILM
RWRILM
REGIONAL HOURLY WEATHER ROUNDUP
NATIONAL WEATHER SERVICE WILMINGTON NC
1100 AM EST TUE FEB 09 2016

NOTE: "FAIR" INDICATES FEW OR NO CLOUDS BELOW 12,000 FEET WITH NO
SIGNIFICANT WEATHER AND/OR OBSTRUCTIONS TO VISIBILITY.

...............WFO WILMINGTON COUNTY WARNING AREA...............

......COASTAL NC AND SC COUNTIES......

CITY           SKY/WX    TMP DP  RH WIND       PRES   REMARKS
WILMINGTON     SUNNY     46  29  51 W18       29.73F
N MYRTLE BEACH MOSUNNY   44  23  43 W20G30    29.77F
MYRTLE BEACH   PTSUNNY   43  21  42 W22G32    29.80F

......INLAND NC AND SC COUNTIES.......

CITY           SKY/WX    TMP DP  RH WIND       PRES   REMARKS
LUMBERTON      SUNNY     44  27  51 W13G20    29.74S
ELIZABETHTOWN  MOSUNNY   42  28  56 W15G22    29.74S
WHITEVILLE     SUNNY     43  24  47 SW12G18   29.75F
FLORENCE       PTSUNNY   42  23  46 W20G26    29.77F
DARLINGTON     MOSUNNY   43  25  49 W17       29.77F
KINGSTREE      CLOUDY    41  23  48 W15G25    29.80F
HARTSVILLE     CLOUDY    41  27  56 W10G18    29.76S
BENNETTSVILLE  PTSUNNY   43  27  52 W13G25    29.76S
CONWAY         PTSUNNY   43  25  49 W14G25    29.79F
GEORGETOWN     CLOUDY    41  27  56 W17G28    29.82F
MARION         FAIR      43  23  45 W18G24    29.77F

....................REST OF NORTH CAROLINA......................

.........EASTERN NC.........

CITY           SKY/WX    TMP DP  RH WIND       PRES   REMARKS
CAPE HATTERAS  MOSUNNY   46  36  68 W15G22    29.65R
JACKSONVILLE   CLOUDY    45  32  61 SW10G21   29.71S
MOREHEAD CITY  PTSUNNY   47  34  60 W13       29.70R
KENANSVILLE    CLOUDY    41  35  79 W10       29.71F
NEW BERN       CLOUDY    45  34  65 W12       29.70R
ELIZABETH CITY MOSUNNY   45  36  70 W15       29.62R

.........CENTRAL NC.........

CITY           SKY/WX    TMP DP  RH WIND       PRES   REMARKS
RALEIGH DURHAM PTSUNNY   42  28  57 VRB7      29.66F
ROCKY MOUNT    CLOUDY    43  32  65 W9        29.67R
ROANOKE RAPIDS NOT AVBL
FAYETTEVILLE   MOSUNNY   44  30  57 W17       29.71S
HOFFMAN        CLOUDY    41  23  48 W15G25    29.72S

.........WESTERN NC.........

CITY           SKY/WX    TMP DP  RH WIND       PRES   REMARKS
CHARLOTTE      CLOUDY    38  15  39 W14G22    29.73S WCI  30
GREENSBORO     PTSUNNY   39  16  39 NW16G24   29.65S WCI  30
HICKORY        NOT AVBL
BOONE          NOT AVBL
ASHEVILLE      NOT AVBL

.....................REST OF SOUTH CAROLINA.....................

.........EASTERN SC.........

CITY           SKY/WX    TMP DP  RH WIND       PRES   REMARKS
CHARLESTON     MOSUNNY   47  24  40 W17G25    29.82F
BEAUFORT MCAS  MOSUNNY   47  27  45 W13G23    29.85F
HILTON HEAD    MOSUNNY   45  28  53 SW17G29   29.87F

.........CENTRAL SC.........

CITY           SKY/WX    TMP DP  RH WIND       PRES   REMARKS
COLUMBIA       CLOUDY    41  23  48 W22       29.80F
ORANGEBURG     PTSUNNY   43  23  45 W20G31    29.81F
SUMTER SHAW    PTSUNNY   41  22  47 W16G26    29.77F

.........WESTERN SC.........

CITY           SKY/WX    TMP DP  RH WIND       PRES   REMARKS
GREENVILLE     NOT AVBL
ROCK HILL      NOT AVBL
ANDERSON       CLOUDY    36  18  48 W16G23    29.79S WCI  26
CLEMSON        NOT AVBL
GREENWOOD      CLOUDY    38  20  48 W20G29    29.81S WCI  28


...................COASTAL AND OFFSHORE REPORTS..................

................LOCAL PIERS AND NC RESERVE................


STATION/POSITION TIME  SKY/WX   TEMP    WIND        PRES    VSBY
                                AIR SEA DIR/SP/G
                 (UTC)          (F)     (DEG/KT/KT) (MB)    (MI)
JOHNY MRCER PIER 1500            43 53  270/ 14/ 21 1005.7R
NC RESRV MASNBRO NOT AVBL
OCEAN CREST PIER NOT AVBL
SPRINGMAID  PIER 1500            42 50  240/ 17/ 24 1008.8R


................COASTAL AND OFFSHORE BUOYS................


STATION/POSITION TIME  SKY/WX   TEMP    WIND        PRES    VSBY
                                AIR SEA DIR/SP/G
                 (UTC)          (F)     (DEG/KT/KT) (MB)    (MI)
DIMNDSHOAL 41025 1550            47 73  280/ 17/ 23 1003.9R
WVE H/P(F/S)= 10/15 SWL H/P/D(F/S/D)= 10/ 80/15

CAPE LOOKOUT     NOT AVBL
ONSLOW BAY 41036 NOT AVBL
ONSLOW BAY 41064 1508            47 61              1005.7R
ONSLOW BAY 41159 1525               61                N/A
WVE H/P(F/S)=  8/14 SWL H/P/D(F/S/D)=  3/100/14

5SE WRITBC 41038 1508            44 51  270/ 17/ 25 1007.0
MASNBO INL 41110 1506               51                N/A
WVE H/P(F/S)=  4/15 SWL H/P/D(F/S/D)=  2/100/15

WILM HARBR 41108 1526               54                N/A
WVE H/P(F/S)=  7/ 7 SWL H/P/D(F/S/D)=  2/160/13

27SE WRITB 41037 1508            38     360/ 21/ 31 1005.6
FRYING PAN 41013 1600            45 56  260/ 27/ 35 1008.5F
SUNST NRSH 41024 NOT AVBL
CAPRS NRSH 41029 1508            44     270/ 19/ 29 1009.7F
EDISTO     41004 1550            47 65  270/ 25/ 31 1009.3F
WVE H/P(F/S)=  9/ 7 SWL H/P/D(F/S/D)=  2/14



..........OFFSHORE BUOYS BEYOND 100 NM OFFSHORE...........
.....IN A TRIANGLE---HAT TO BERMUDA TO BAHAMAS TO HAT.....


STATION/POSITION TIME  SKY/WX   TEMP    WIND        PRES    VSBY
                                AIR SEA DIR/SP/G
                 (UTC)          (F)     (DEG/KT/KT) (MB)    (MI)
150E HAT   41001 1600            56 71  260/ 27/ 37 1002.4R
W BERMUDA  41048 1550            70 70  210/ 33/ 43 1004.8F
WVE H/P(F/S)= 16/ 8 SWL H/P/D(F/S/D)=  5/ 80/14

ATLANTIC S 41049 1550            76 75  190/ 17/ 23 1018.8F
WVE H/P(F/S)= 13/14 SWL H/P/D(F/S/D)= 11/280/14

E BAHAMAS  41046 1550            78 79  180/ 10/ 14 1019.6F
WVE H/P(F/S)= 11/13 SWL H/P/D(F/S/D)= 11/310/13

NE BAHAMAS 41047 1550            72 75  240/ 23/ 29 1015.1F
WVE H/P(F/S)= 12/13 SWL H/P/D(F/S/D)=  7/320/13

120E CANVRL41010 1520            58 72              1015.2R

END



USA.gov is the U.S. government's official web portal to all federal, state and local government web resources and services.